Zurück zum Katalog

KHORS NO. 3

AktivAmateurfunkSSO
NORAD 61753·PAYLOAD·🇷🇺 Russia
Dieser Satellitenname wurde noch nicht durch offizielle Quellen bestätigt.

Gestartet Nov 4, 2024 von Vostochny Cosmodrome

Loading…

Nächste Überflüge (nächste 24 Stunden)

TLE

AktuellSource: Space-Track

Epoche: Sep 14, 2026, 14:46 UTC

1 61753U 24199U   26257.61543065  .00039553  00000-0  46220-3 0  9991
2 61753  97.2798 135.5763 0003160 334.1771  25.9328 15.61497434151484

Verfolge KHORS NO. 3 in Echtzeit mit AllMySat

Download on the App Store